Вернуться в каталог

FENGYUN 1C DEB

АктивенSSO
NORAD 33726·DEBRIS·🇨🇳 China

Запущен May 10, 1999 с Taiyuan Satellite Launch Center

Loading…

Ближайшие Пролёты (ближайшие 24 часа)

TLE

СвежийSource: Space-Track

Эпоха: Sep 14, 2026, 04:58 UTC

1 33726U 99025DHP 26257.20699402  .00000375  00000-0  18284-3 0  9991
2 33726  98.6693  18.1214 0190580 322.6996 153.9417 14.14768545958266

Отслеживайте FENGYUN 1C DEB в реальном времени с AllMySat

Download on the App Store